WetterOnline ( http://www.wetteronline.de )

Wetter aktuell Bonn

Aktuelles Wetter: Roleber (162m)

6-stündlich | Neueste Meldungen
Ortszeit Temperatur Wetter
Di, 19.03. 19:00 6.9° C leicht bewölkt
Di, 19.03. 13:00 8.5° C wolkenlos
Di, 19.03. 7:00 -0.4° C leicht bewölkt
Di, 19.03. 1:00 1.3° C wolkenlos
Mo, 18.03. 19:00 5.5° C wolkig
Mo, 18.03. 13:00 7.6° C leicht bewölkt
Mo, 18.03. 7:00 3.7° C leichter Regen
Mo, 18.03. 1:00 2.3° C leicht bewölkt
Ortszeit Temperatur Wetter
Di, 19.03. 21:30 3.6° C fast wolkenlos
Di, 19.03. 21:10 4.0° C fast wolkenlos
Di, 19.03. 21:00 3.8° C wolkenlos
Di, 19.03. 20:50 3.8° C wolkenlos
Di, 19.03. 20:40 3.9° C wolkenlos
Di, 19.03. 20:30 4.7° C wolkenlos
Di, 19.03. 20:00 5.1° C wolkenlos
Di, 19.03. 19:30 5.4° C leicht bewölkt
Di, 19.03. 19:00 6.9° C leicht bewölkt
Di, 19.03. 18:30 8.2° C leicht bewölkt
Di, 19.03. 18:00 8.8° C leicht bewölkt
Ortszeit Relative Feuchte Sichtweite
Di, 19.03. 19:00 58% 50 km
Di, 19.03. 13:00 48% 40 km
Di, 19.03. 7:00 90% 22 km
Di, 19.03. 1:00 84% 30 km
Mo, 18.03. 19:00 70% 40 km
Mo, 18.03. 13:00 62% 50 km
Mo, 18.03. 7:00 82% 30 km
Mo, 18.03. 1:00 85% 60 km
Ortszeit Relative Feuchte Sichtweite
Di, 19.03. 21:30 73% 35 km
Di, 19.03. 21:10 71% -
Di, 19.03. 21:00 76% 22 km
Di, 19.03. 20:50 76% -
Di, 19.03. 20:40 76% -
Di, 19.03. 20:30 71% 27 km
Di, 19.03. 20:00 66% 45 km
Di, 19.03. 19:30 64% 40 km
Di, 19.03. 19:00 58% 50 km
Di, 19.03. 18:30 52% 60 km
Di, 19.03. 18:00 50% 55 km
Ortszeit Niederschlagsmenge Niederschlagsart
Di, 19.03. 19:00 0.0 l/m2 in 12 Std. -
Di, 19.03. 13:00 0.0 l/m2 in 6 Std. -
Di, 19.03. 7:00 0.1 l/m2 in 12 Std. -
Di, 19.03. 1:00 0.1 l/m2 in 6 Std. Regen
Mo, 18.03. 19:00 0.5 l/m2 in 12 Std. Regen
Mo, 18.03. 13:00 0.2 l/m2 in 6 Std. Regen
Mo, 18.03. 7:00 0.1 l/m2 in 12 Std. Regen
Mo, 18.03. 1:00 0.1 l/m2 in 6 Std. Regen
Ortszeit Niederschlagsmenge Niederschlagsart
Di, 19.03. 21:30 0.0 l/m2 in 1 Std. -
Di, 19.03. 21:10 keine Meldung -
Di, 19.03. 21:00 0.0 l/m2 in 1 Std. -
Di, 19.03. 20:50 keine Meldung -
Di, 19.03. 20:40 keine Meldung -
Di, 19.03. 20:30 0.0 l/m2 in 1 Std. -
Di, 19.03. 20:00 0.0 l/m2 in 1 Std. -
Di, 19.03. 19:30 0.0 l/m2 in 1 Std. -
Di, 19.03. 19:00 0.0 l/m2 in 1 Std. -
Di, 19.03. 18:30 0.0 l/m2 in 1 Std. -
Di, 19.03. 18:00 0.0 l/m2 in 1 Std. -
Ortszeit Stärke Spitze Richtung
km/h Bft. km/h Grad Sektor
Di, 19.03. 19:00 4 1 22 350° N
Di, 19.03. 13:00 7 2 18 310° NW
Di, 19.03. 7:00 6 1 11 220° SW
Di, 19.03. 1:00 6 1 15 230° SW
Mo, 18.03. 19:00 7 2 47 290° W
Mo, 18.03. 13:00 14 3 40 280° W
Mo, 18.03. 7:00 11 2 25 270° W
Mo, 18.03. 1:00 9 2 59 210° SW
Ortszeit Stärke Spitze Richtung
km/h Bft. km/h Grad Sektor
Di, 19.03. 21:30 4 1 7 220° SW
Di, 19.03. 21:10 2 1 - 200° S
Di, 19.03. 21:00 0 0 4 - -
Di, 19.03. 20:50 0 0 - 170° S
Di, 19.03. 20:40 2 1 - 170° S
Di, 19.03. 20:30 4 1 4 170° S
Di, 19.03. 20:00 4 1 4 320° NW
Di, 19.03. 19:30 4 1 4 320° NW
Di, 19.03. 19:00 4 1 14 350° N
Di, 19.03. 18:30 6 1 13 330° NW
Di, 19.03. 18:00 7 2 17 320° NW
Ortszeit Untergrenze Bedeckung Gattung
total tief tief mittel hoch
Di, 19.03. 19:00 2100 m 2/8 2/8 - - -
Di, 19.03. 13:00 - 0/8 0/8 - - -
Di, 19.03. 7:00 840 m 3/8 3/8 - - -
Di, 19.03. 1:00 - 0/8 0/8 - - -
Mo, 18.03. 19:00 1230 m 4/8 6/8 - - -
Mo, 18.03. 13:00 1800 m 3/8 3/8 - - -
Mo, 18.03. 7:00 480 m 7/8 7/8 - - -
Mo, 18.03. 1:00 870 m 3/8 3/8 - - -
Ortszeit Bedeckungsgrad in Achtel und Wolkenuntergrenze
Di, 19.03. 21:30 2(8400m)
Di, 19.03. 21:10 1(8400m)
Di, 19.03. 21:00 keine Wolken
Di, 19.03. 20:50 keine Wolken
Di, 19.03. 20:40 keine Wolken
Di, 19.03. 20:30 keine Wolken
Di, 19.03. 20:00 keine Wolken
Di, 19.03. 19:30 2(2100m)
Di, 19.03. 19:00 2(2100m)
Di, 19.03. 18:30 3(2100m)
Di, 19.03. 18:00 2(2100m)
Ortszeit Luftdruck NN (hPa) Tendenz (hPa in 3 Std.)
Di, 19.03. 19:00 1030 + 0,9
Di, 19.03. 13:00 1030 + 0,8
Di, 19.03. 7:00 1028 + 1,5
Di, 19.03. 1:00 1025 + 1,3
Mo, 18.03. 19:00 1021 + 1,1
Mo, 18.03. 13:00 1019 + 1,5
Mo, 18.03. 7:00 1015 + 1,6
Mo, 18.03. 1:00 1013 + 1,1
Ortszeit Luftdruck NN (hPa) Tendenz (hPa in 3 Std.)
Di, 19.03. 21:30 1032 + 1,5
Di, 19.03. 21:10 1032 keine Meldung
Di, 19.03. 21:00 1031 + 1,5
Di, 19.03. 20:50 1031 keine Meldung
Di, 19.03. 20:40 1031 keine Meldung
Di, 19.03. 20:30 1031 + 1,4
Di, 19.03. 20:00 1031 + 1,5
Di, 19.03. 19:30 1031 + 1,2
Di, 19.03. 19:00 1030 + 0,9
Di, 19.03. 18:30 1030 + 0,6
Di, 19.03. 18:00 1030 + 0,4
Ortszeit Schneehöhe (cm)
Di, 19.03. 19:00 0
Di, 19.03. 13:00 0
Di, 19.03. 7:00 0
Di, 19.03. 1:00 0
Mo, 18.03. 19:00 0
Mo, 18.03. 13:00 0
Mo, 18.03. 7:00 0
Mo, 18.03. 1:00 0
Ortszeit Schneehöhe (cm)
Di, 19.03. 21:30 0
Di, 19.03. 21:10 0
Di, 19.03. 21:00 0
Di, 19.03. 20:50 0
Di, 19.03. 20:40 0
Di, 19.03. 20:30 0
Di, 19.03. 20:00 0
Di, 19.03. 19:30 0
Di, 19.03. 19:00 0
Di, 19.03. 18:30 0
Di, 19.03. 18:00 0
Link zu dieser Seite / Seite empfehlen

Das Wetter in ...